#timestamp,LO_Frequency,Hit,StdDev 
1459760415.7,286046993.2,N
1459760435.5,286046992.7,N
1459760455.4,286046991.9,Y
1459760475.2,286046998.5,P
1459760495.0,286046998.5,N
1459760495.9,286046998.5,N
1459760515.8,286047000.8,N
1459760535.6,286046997.5,N
1459760555.4,286046999.5,N
1459760575.2,286046998.2,N
1459760595.1,286046998.2,N
1459760596.0,286046998.2,N
1459760615.8,286047000.4,N
1459760635.6,286046996.5,N
1459760655.5,286046995.7,N
1459760675.3,286046997.6,N
1459760695.1,286046997.6,N
1459760715.9,286046997.8,N
1459760735.7,286046995.6,N
1459760755.5,286046996.0,N
1459760775.4,286046994.0,Y
1459760795.2,286046998.4,P
1459760815.0,286047001.2,P
1459760815.9,286047001.2,N
1459760835.8,286047000.7,N
1459760855.6,286046998.9,N
1459760875.4,286046996.9,N
1459760895.3,286046997.0,N
1459760915.1,286046998.1,N
1459760916.0,286046998.1,N
1459760935.8,286047001.2,N
1459760955.7,286046995.4,N
1459760975.5,286046999.5,N
1459760995.3,286046998.4,N
1459761015.1,286046998.4,N
1459761035.9,286047001.0,N
1459761055.7,286047000.3,N
1459761075.5,286046997.3,N
1459761095.4,286046997.0,N
1459761115.2,286046996.7,N
1459761135.0,286046996.9,N
1459761135.9,286046996.9,N
1459761155.8,286046997.2,N
1459761175.6,286046999.6,N
1459761195.4,286046996.0,N
1459761215.3,286046996.1,N
1459761235.1,286046996.2,N
1459761236.0,286046996.2,N
1459761255.8,286046995.0,N
1459761275.7,286046993.7,Y
1459761295.5,286046993.8,P
1459761315.3,286046990.5,P
1459761335.2,286046993.1,N
1459761355.9,286046993.6,N
1459761375.7,286046992.8,N
1459761395.6,286046988.8,Y
1459761415.4,286046997.7,P
1459761435.2,286046996.7,N
1459761455.0,286046996.7,N
1459761456.0,286046996.7,N
1459761475.8,286046995.7,Y
1459761495.6,286046999.3,P
1459761515.5,286047000.5,N
1459761535.3,286046999.0,N
1459761555.1,286046996.5,N
1459761575.8,286047000.6,N
1459761595.7,286047001.9,N
1459761615.5,286047005.3,N
1459761635.3,286047007.1,N
1459761655.2,286047003.5,N
1459761675.9,286047001.8,N
1459761695.7,286047004.1,N
1459761715.6,286046999.9,N
1459761735.4,286047002.7,N
1459761755.2,286046998.1,N
1459761775.1,286047000.1,N
1459761776.0,286047000.1,N
1459761795.8,286047002.6,N
1459761815.6,286047003.6,N
1459761835.4,286047004.2,N
1459761855.3,286047003.2,N
1459761875.1,286047004.3,N
1459761895.8,286047003.4,N
1459761915.7,286047004.2,N
1459761935.5,286047002.1,N
1459761955.3,286047002.6,N
1459761975.2,286047002.6,N
1459761995.9,286047003.5,N
1459762015.7,286047001.6,N
1459762035.6,286047005.9,N
1459762055.4,286047004.9,N
1459762075.2,286047002.6,N
1459762095.1,286047000.9,N
1459762096.0,286047000.9,N
1459762115.8,286047007.0,Y
1459762135.6,286047003.7,P
1459762155.5,286047003.8,P
1459762175.3,286047004.2,P
1459762195.1,286046999.9,N
1459762215.9,286047001.1,N
1459762235.7,286046999.5,N
1459762255.5,286046999.0,N
1459762275.3,286046997.4,N
1459762295.2,286046996.6,N
1459762315.0,286046999.1,N
1459762315.9,286046999.1,N
1459762335.7,286046999.3,N
1459762355.6,286047001.0,N
1459762375.4,286047000.6,N
1459762395.2,286046998.4,N
1459762415.1,286046996.9,N
1459762416.0,286046996.9,N
1459762435.8,286046998.7,N
1459762455.6,286046999.1,N
1459762475.5,286047000.6,N
1459762495.3,286047000.3,N
1459762515.1,286046999.8,N
1459762535.9,286047000.1,N
1459762555.7,286047002.5,N
1459762575.5,286047003.6,N
1459762595.3,286047003.6,N
1459762615.2,286047003.9,N
1459762635.0,286047004.0,N
1459762635.9,286047004.0,N
1459762655.7,286047001.3,N
1459762675.6,286046998.5,N
1459762695.4,286046999.6,N
1459762715.2,286046997.3,N
1459762735.1,286046999.2,N
1459762736.0,286046999.2,N
1459762755.8,286046998.4,N
1459762775.6,286047000.2,N
1459762795.5,286047000.0,N
1459762815.3,286047002.1,N
1459762835.1,286047002.8,N
1459762855.9,286047000.9,N
1459762875.7,286047000.5,N
1459762895.5,286046998.3,N
1459762915.4,286047002.2,N
1459762935.2,286046998.1,N
1459762955.0,286046997.0,N
1459762955.9,286046997.0,N
1459762975.8,286046997.8,N
1459762995.6,286046997.1,N
1459763015.4,286046997.0,N
1459763035.2,286046993.4,N
1459763055.1,286046997.4,N
1459763056.0,286046997.4,N
1459763075.8,286046995.2,N
1459763095.6,286046996.0,N
1459763115.5,286046999.5,N
1459763135.3,286046997.2,N
1459763155.1,286046997.7,N
1459763175.9,286046999.6,N
1459763195.7,286046996.3,N
1459763215.5,286046995.3,N
1459763235.4,286046993.5,Y
1459763255.2,286046994.1,P
1459763275.0,286046992.7,P
1459763275.9,286046992.7,P
1459763295.8,286046990.1,Y
1459763315.6,286046996.7,P
1459763335.4,286046996.8,N
1459763355.3,286046999.2,N
1459763375.1,286047002.1,N
1459763395.8,286047000.8,N
1459763415.7,286046999.2,N
1459763435.5,286046996.9,N
1459763455.3,286046997.3,N
1459763475.2,286046995.4,N
1459763495.9,286046994.1,N
1459763515.7,286046993.5,N
1459763535.6,286046999.3,N
1459763555.4,286046999.2,N
1459763575.2,286046998.0,N
1459763595.1,286046997.4,N
1459763596.0,286046997.4,N
1459763615.8,286046997.5,N
1459763635.6,286046996.5,N
1459763655.5,286046997.0,N
1459763675.3,286046997.5,N
1459763695.1,286047000.2,N
1459763715.8,286047002.8,N
1459763735.7,286047000.2,N
1459763755.5,286046998.5,N
1459763775.3,286046997.5,N
1459763795.2,286046999.5,N
1459763815.0,286046998.7,N
1459763815.9,286046998.7,N
1459763835.7,286047001.3,N
1459763855.6,286047001.4,N
1459763875.4,286047000.3,N
1459763895.2,286046999.2,N
1459763915.1,286046997.5,N
1459763916.0,286046997.5,N
1459763935.8,286046998.2,N
1459763955.6,286047000.0,N
1459763975.5,286047000.3,N
1459763995.3,286046998.2,N
